Погода в Сутуре

Погода в Сутуре : погода сейчас, прогноз погоды и архив. Всё, что Вы хотите узнать о погоде в Сутуре!

Поиск расширенной информации на нашем сайте:

Полезная информация: бухгалтерское обслуживание в строительстве

Другие новости

Новости СМИ2

Главная страница сайта

Новости сайта

03.07.2017

Напоминаем, что на нашем специализированном сайте Метеоцентр.Азия вы можете получить высокодетализированные автоматические прогнозы погоды по пунктам России, СНГ и мира в авиационном формате (включающие направление и скорость ветра, видимость, явления погоды, количество и форму облачности, нижнюю и верхнюю границу облачности).

Рекомендуем: технические характеристики ВВГнг 4х150

Погода в Сутуре - сегодня

Время (UTC), дата Ветер
(°,м/с) 
Видим.   Явления Облачность Т
(°С)
Тd
(°С)
f(%) Тe
(°С)
Pmin
(гПа)
dP
(гПа)
Po
(мм)
O2
(г/м3)
Тmin Tmax R s Состояние
почвы
03 19.11.17 210 (ЮЗ) 20000 м    ясно 
-21.1 -25.8 66 -24  1018.2  -0.9  729  320           
06 19.11.17 290 (З) 20000 м    3/0 верхняя 
[Ci fib]
-17.4 -24.9 52 -20  1016.8  -0.7  729  315           
09 19.11.17 250 (З) 20000 м    ясно 
-20.3 -25.1 65 -23  1018.5  1.1  729  319    -17.2       
12 19.11.17 240 (ЮЗ) 20000 м    ясно 
-21.9 -26 69 -25  1018.6  -0.2  729  321           
15 19.11.17 220 (ЮЗ) 20000 м    ясно 
-23.8 -27.3 73 -27  1018.4  -0.6  729  323           
18 19.11.17 280 (З) 20000 м    ясно 
-27.2 -29.9 78 -28  1018.3  -0.7  728  328           
21 19.11.17 340 (С) 20000 м    ясно 
-30.6 -33.8 73 -31  1018.3  -0.7  728  332  -30.6      10  равномерный
сухой снег
100% 
00 20.11.17 тихо ()   20000 м    4/0 верхняя 
[Ci]
-27.5 -30.2 78 -28  1016.9  -0.7  727  328  -30.8         
03 20.11.17 250 (З) 20000 м    3/0 
-19.5 -25.7 58 -24  1014.1  -1.2  726  317           
06 20.11.17 270 (З) 4{10}  20000 м    4/0 средняя 
[Ac trans]
-18.3 -25.5 53 -24  1013.8  -0.1  726  315           
09 20.11.17 270 (З) 20000 м    ясно 
-19.7 -25.1 62 -22  1015.5  1.4  727  318    -18.1       
12 20.11.17 230 (ЮЗ) 20000 м    ясно 
-20.3 -24.8 67 -23  1016.7  728  319           
15 20.11.17 360 (С) 20000 м    ясно 
-26.3 -29 78 -27  1018.3  0.4  728  327           
18 20.11.17 020 (С) 20000 м    ясно 
-27.5 -30.4 76 -28  1018.9  0.3  729  328           
21 20.11.17 020 (С) 20000 м    10/0 верхняя 
[Cs]
-25.4 -28.1 78 -26  1018  -0.4  728  325  -28      равномерный
сухой снег
100% 
00 21.11.17 340 (С) 10 км  слаб. снег  10/0 верхняя 
[Cs]
-22.4 -25.1 79 -23  1018.2  0.8  729  322           
03 21.11.17 330 (СЗ) 20000 м  слаб. снег  10/0 средняя, верхняя 
[Ac lent|Cs]
-17.9 -21.3 75 -18  1016.8  -0.6  729  316           
06 21.11.17 010 (С) 10 км  слаб. снег  10/0 средняя 
[Ac As]
-15.2 -18.4 76 -15  1015  -1.2  728  312           
09 21.11.17 350 (С) 10 км  слаб. снег  10/0 средняя 
[As op]
-15.1 -16.7 88 -15  1014.5  -0.4  727  312    -15.1     
12 21.11.17 360 (С) 10 км  слаб. снег  10/0 средняя 
[As op]
-14.5 -16.1 88 -15  1013.6  -0.8  727  311           
15 21.11.17 020 (С) 10 км  слаб. снег  10/0 средняя 
[As op]
-14.4 -16 88 -14  1011.3  -2.1  725  310           
18 21.11.17 010 (С) 10 км  слаб. снег  10/0 средняя 
[As op]
-14.3 -15.8 88 -16  1009.2  -2  724  309           
21 21.11.17 360 (С) 10 км  слаб. снег  10/0 средняя 
[As op]
-14.4 -16 88 -14  1007.6  -1.5  722  309  -15.1    15  равномерный
сухой снег
100% 
00 22.11.17 330 (СЗ) 10 км  слаб. снег  10/0 средняя 
[As trans]
-14.3 -16.1 86 -14  1007.1  -0.4  722  308           
03 22.11.17 310 (СЗ) 20000 м  {снег}  6/0 верхняя 
[Ci fib]
-11.5 -16.1 69 -13  1006  -0.6  722  305           
Время (UTC), дата Ветер
(°,м/с) 
Видим.   Явления Облачность Т
(°С)
Тd
(°С)
f(%) Тe
(°С)
Pmin
(гПа)
dP
(гПа)
Po
(мм)
O2
(г/м3)
Тmin Tmax R s Состояние
почвы

Для получения пояснительной информации подведите курсор к названию столбца.

ПОГОДА в Сутуре - архив

Всё, что Вы хотите узнать о погоде в Сутуре - удобно и подробно!

Выберите нужную дату (начиная с 1 января 2015* года) и нажмите кнопку "Найти".
Будут отображены архивные сводки погоды по пункту Сутур, начиная с указанной даты.


Отображать данные в формате CSV (для использования в таблицах Excel)


Внимание! Наш архив погоды предназначен исключительно для личного некоммерческого использования в познавательных целях. Если Вам необходимы официальные справки о состоянии погоды (для производственных, юридических, коммерческих и т.п. целей), обращайтесь в органы Росгидромета.

*Примечание: данная дата относится к архиву по метеостанциям СССР (Россия, СНГ, Балтия).
Архив по метеостанциям Зарубежной Европы и Азии (кроме Китая) хранится 10 дней, по другим регионам земного шара (Китай, Африка, Америка, Австралия, Океания) - 1 день.

Сутур - район местоположения метеостанции


Название, широта, долгота, высота метеостанции:
Сутур 50.1°ш. 132.1°д. 347 м над ур. моря [Российская Федерация]

Дополнительная информация

В oтличие oт бoльшинства пoгoдных сайтoв мы публикуем пoдрoбную метеoинфoрмацию в детальнoм прoфессиoнальнoм фoрмате.

Характеристики температуры и влажнoсти вoздуха измеряются на высoте 2 м в тени вдали oт зданий и деревьев.
Скoрoсть ветра измеряется на высoте 10 м (на урoвне рoста челoвека скoрoсть ветра ниже в 1.5-2 раза). Если метеoстанция нахoдится в гoрoде или в лесу, тo скoрoсть ветра занижена на 2-4 м/с пo сравнению с oткрытым местoм. Скoрoсть ветра над акватoриями крупных рек и oзёр, а также на вершинах хoлмoв на 2-5 м/с выше, чем в oбычных услoвиях.
Атмoсфернoе давление в разных тoчках местнoсти мoжет значительнo oтличаться oт давления на метеoстанции, в зависимoсти oт услoвий рельефа (при пoдъёме на 10 м давление пoнижается примернo на 1 мм рт.ст.).